Regional Weather Roundup
Issued by NWS Albany, NY

Current Version | Previous Version | Text Only | Print | Product List | Glossary On
Versions: 1 2 3 4 5 6 7 8 9 10 11 12 13 14 15 16 17 18 19 20 21 22 23 24 25 26 27 28 29 30 31 32 33 34 35 36 37 38 39 40 41 42 43 44 45 46 47 48 49 50
000
ASUS41 KALY 220810
RWRALY

NEW YORK STATE HOURLY WEATHER ROUNDUP
NATIONAL WEATHER SERVICE ALBANY NY
400 AM EDT MON OCT 22 2018

NOTE: "FAIR" INDICATES FEW OR NO CLOUDS BELOW 12,000 FEET WITH NO
SIGNIFICANT WEATHER AND/OR NO OBSTRUCTIONS TO VISIBILITY.

NYZ032-033-038>043-046>054-057>066-NYZ062>081-082-084-220900-
EAST


CITY           SKY/WX    TMP DP  RH WIND       PRES   REMARKS
ALBANY         CLOUDY    37  31  78 SW3       30.15R
GLENS FALLS    MOCLDY    27  25  92 CALM      30.12R
POUGHKEEPSIE   CLOUDY    39  27  62 SW7       30.16S WCI  34
MONTGOMERY     CLOUDY    34  29  82 CALM      30.17R
WHITE PLAINS   FAIR      35  27  72 W7        30.18R WCI  29
ISLIP          FAIR      32  28  85 W6        30.19R WCI  26
NEW YORK CITY  FAIR      43  26  51 W9        30.20S
CENTRAL PARK   FAIR      39  28  64 MISG      30.23R
$$

NYZ005>009-017-018-044>046-055-056-220900-
CENTRAL


CITY           SKY/WX    TMP DP  RH WIND       PRES   REMARKS
FULTON         LGT RAIN  37  31  78 SW7       30.13S WCI  32
SYRACUSE       DRIZZLE   38  32  79 W7        30.14S WCI  33
ROME           LGT RAIN  36  35  96 W6        30.16R WCI  31
ELMIRA         CLOUDY    38  33  82 S7        30.16S WCI  33
BINGHAMTON     CLOUDY    33  29  85 W8        30.12R WCI  26
MONTICELLO     CLOUDY    34  27  75 W5        30.15R WCI  30
$$

NYZ026>034-041>043-087-220900-
NORTH


CITY           SKY/WX    TMP DP  RH WIND       PRES   REMARKS
WATERTOWN      CLOUDY    34  30  85 S3        30.12S
FORT DRUM      NOT AVBL
OGDENSBURG     CLOUDY    32  29  90 CALM      30.11S
MASSENA        CLOUDY    32  25  75 SW6       30.12S WCI  26
SARANAC LAKE   CLOUDY    28  18  66 W3        30.04R
PLATTSBURGH    CLOUDY    33  22  63 CALM      30.11R
$$

NYZ001>004-010>016-019>021-085-220900-
WEST


CITY           SKY/WX    TMP DP  RH WIND       PRES   REMARKS
NIAGARA FALLS  CLOUDY    38  29  70 S8        30.13S WCI  32
BUFFALO        CLOUDY    39  30  70 S7        30.13F WCI  34
DUNKIRK        CLOUDY    40  32  73 S9        30.14F WCI  34
JAMESTOWN      CLOUDY    35  29  78 SW10      30.13F WCI  27
WELLSVILLE     CLOUDY    34  32  92 SW7       30.13S WCI  28
ROCHESTER      CLOUDY    38  31  76 SW6       30.15F WCI  33
PENN YAN       CLOUDY    38  28  67 SW8       30.15S WCI  32
$$

             KEY
       WCI = WIND CHILL INDEX
       VSB = VISIBILITY
       HX  = HEAT INDEX
$$



USA.gov is the U.S. government's official web portal to all federal, state and local government web resources and services.